Total_Precipitation_Accumulation
0.05 0.09 0.15 0.19 0.17 0.13 0.09 0.07 0.09 0.16 0.32 0.42 0.53 0.60 0.61 0.61 0.57 0.51 0.47 0.44 0.37 0.34 0.36 0.46 0.61 0.64 0.71 0.84 1.03 1.06 1.21 1.37 1.42 1.54 1.61 1.66 1.75 1.75 1.68 1.69 1.74 1.92 1.99 1.98
0.04 0.07 0.11 0.14 0.17 0.12 0.09 0.07 0.07 0.16 0.35 0.44 0.46 0.53 0.61 0.59 0.59 0.56 0.48 0.44 0.46 0.48 0.48 0.53 0.59 0.66 0.73 0.78 0.96 1.16 1.40 1.67 1.70 1.79 1.84 1.94 2.10 2.17 2.10 2.07 2.15 2.19 2.15 2.10
0.07 0.10 0.11 0.16 0.16 0.13 0.14 0.13 0.15 0.22 0.34 0.39 0.45 0.55 0.74 0.75 0.69 0.69 0.63 0.60 0.62 0.70 0.68 0.68 0.69 0.73 0.80 0.87 1.03 1.29 1.56 1.80 1.95 2.05 2.12 2.21 2.30 2.32 2.27 2.38 2.54 2.55 2.43 2.27
0.12 0.16 0.22 0.20 0.20 0.17 0.19 0.22 0.27 0.35 0.38 0.49 0.68 0.80 0.94 0.99 0.87 0.83 0.75 0.69 0.71 0.82 0.89 0.86 0.86 0.94 1.07 1.21 1.40 1.65 1.85 1.99 2.09 2.11 2.14 2.20 2.27 2.22 2.26 2.40 2.47 2.49 2.42 2.28
0.23 0.25 0.25 0.26 0.30 0.30 0.34 0.47 0.48 0.56 0.63 0.71 0.80 0.80 0.88 0.84 0.74 0.71 0.68 0.74 0.80 0.89 1.00 1.08 1.10 1.20 1.28 1.37 1.52 1.73 1.86 1.90 1.90 2.00 2.11 2.17 2.21 2.26 2.28 2.28 2.16 2.08 2.05 2.06
0.36 0.38 0.40 0.43 0.46 0.42 0.49 0.91 0.93 0.88 0.85 0.81 0.85 1.04 1.03 0.83 0.75 0.73 0.70 0.72 0.85 0.87 0.95 1.06 1.15 1.17 1.25 1.37 1.54 1.74 1.88 1.89 1.87 1.97 2.05 2.11 2.17 2.23 2.18 2.11 2.06 2.00 1.92 1.93
0.50 0.53 0.50 0.48 0.44 0.43 0.75 1.08 1.03 1.02 1.06 0.98 1.05 1.11 1.07 0.92 0.90 0.83 0.75 0.73 0.79 0.91 0.99 1.03 1.11 1.15 1.21 1.32 1.45 1.57 1.64 1.71 1.81 1.95 2.05 2.08 2.12 2.12 2.06 1.97 2.00 2.03 1.95 1.85
0.66 0.81 0.86 0.62 0.52 0.74 1.00 0.88 1.03 1.15 1.15 1.12 1.05 0.96 0.98 0.96 0.96 0.90 0.83 0.86 0.90 0.98 1.12 1.19 1.23 1.23 1.31 1.30 1.36 1.46 1.46 1.51 1.54 1.62 1.76 1.81 1.90 1.87 1.88 1.87 1.84 1.83 1.77 1.68
0.91 1.03 0.87 0.73 0.75 0.83 0.87 0.91 0.98 1.11 1.17 1.13 1.14 1.10 0.95 0.90 0.88 1.00 1.07 1.08 1.06 1.04 1.11 1.17 1.27 1.36 1.41 1.35 1.30 1.31 1.34 1.40 1.45 1.44 1.58 1.71 1.78 1.74 1.73 1.71 1.65 1.59 1.52 1.47
1.12 1.20 1.05 0.95 0.91 0.85 0.83 0.87 0.92 1.07 1.19 1.26 1.22 1.07 0.97 0.88 0.83 0.81 0.86 0.90 0.97 0.99 1.04 1.19 1.18 1.21 1.27 1.29 1.27 1.32 1.38 1.37 1.40 1.44 1.53 1.74 1.82 1.71 1.60 1.54 1.47 1.44 1.39 1.39
1.27 1.32 1.15 1.04 0.98 1.03 1.00 0.95 0.93 1.02 1.10 1.10 1.04 1.01 0.98 0.87 0.79 0.77 0.73 0.71 0.74 0.81 0.84 0.92 0.93 0.95 0.99 1.02 1.08 1.13 1.15 1.12 1.08 1.15 1.29 1.48 1.59 1.56 1.42 1.36 1.40 1.41 1.37 1.33
1.39 1.25 1.28 1.30 1.17 1.14 1.21 1.23 1.19 1.14 1.14 1.06 0.96 0.91 0.86 0.74 0.66 0.64 0.61 0.60 0.65 0.68 0.69 0.72 0.78 0.86 0.95 1.08 1.18 1.16 1.09 1.03 1.02 1.02 1.12 1.31 1.52 1.59 1.46 1.25 1.27 1.23 1.17 1.11
1.24 1.17 1.27 1.32 1.33 1.38 1.47 1.38 1.31 1.27 1.16 1.01 0.99 0.90 0.81 0.74 0.65 0.61 0.56 0.56 0.62 0.66 0.70 0.79 0.81 0.78 0.84 0.96 1.07 1.17 1.14 1.09 1.06 1.03 1.07 1.17 1.39 1.61 1.66 1.42 1.20 1.09 0.95 0.85
1.25 1.26 1.42 1.45 1.49 1.52 1.50 1.46 1.39 1.39 1.31 1.16 1.03 0.91 0.85 0.87 0.78 0.70 0.68 0.71 0.77 0.79 0.81 0.85 0.86 0.84 0.82 0.89 0.97 1.07 1.11 1.08 0.99 0.95 1.00 1.11 1.33 1.60 1.76 1.68 1.47 1.20 0.93 0.76
1.37 1.37 1.38 1.30 1.36 1.40 1.44 1.45 1.37 1.42 1.37 1.25 1.07 0.92 0.82 0.80 0.80 0.78 0.76 0.83 0.96 0.95 0.90 0.87 0.85 0.84 0.82 0.84 0.91 0.97 1.03 1.05 1.01 0.99 1.02 1.07 1.26 1.51 1.68 1.72 1.63 1.47 1.12 0.81
1.44 1.39 1.26 1.20 1.27 1.32 1.33 1.28 1.21 1.27 1.26 1.20 1.12 1.01 0.91 0.85 0.83 0.80 0.83 0.94 1.09 1.11 1.00 0.94 0.92 0.91 0.91 0.90 0.87 0.87 0.91 0.93 0.85 0.84 0.90 0.92 1.01 1.20 1.45 1.59 1.52 1.42 1.20 0.80
1.44 1.49 1.41 1.31 1.33 1.37 1.35 1.23 1.16 1.17 1.17 1.19 1.22 1.14 1.09 1.06 1.02 1.03 1.09 1.15 1.19 1.15 1.02 0.94 0.90 0.85 0.84 0.89 0.92 0.86 0.82 0.81 0.72 0.65 0.70 0.77 0.84 1.02 1.27 1.46 1.43 1.30 1.13 0.78
1.28 1.23 1.25 1.28 1.34 1.37 1.30 1.14 1.07 1.06 1.07 1.15 1.21 1.20 1.23 1.24 1.24 1.29 1.32 1.29 1.19 1.03 0.90 0.84 0.78 0.74 0.71 0.69 0.68 0.66 0.66 0.68 0.64 0.63 0.69 0.73 0.73 0.89 1.14 1.33 1.29 1.21 1.10 0.86
1.14 1.08 1.08 1.11 1.19 1.20 1.13 1.05 0.97 0.94 0.92 0.96 1.01 1.05 1.09 1.13 1.17 1.24 1.23 1.31 1.33 1.19 0.94 0.74 0.73 0.65 0.63 0.59 0.57 0.54 0.52 0.52 0.51 0.51 0.56 0.60 0.69 0.87 1.03 1.13 1.10 1.05 0.92 0.79
1.17 1.14 1.06 1.13 1.16 1.06 0.96 0.89 0.83 0.84 0.84 0.84 0.83 0.83 0.88 0.94 1.03 1.16 1.21 1.32 1.36 1.24 1.02 0.84 0.68 0.58 0.52 0.45 0.44 0.44 0.47 0.49 0.52 0.56 0.58 0.66 0.74 0.86 0.93 0.93 0.89 0.86 0.82 0.81
1.08 1.08 0.96 1.04 1.04 0.90 0.81 0.74 0.68 0.68 0.70 0.68 0.66 0.67 0.72 0.76 0.85 1.03 1.33 1.53 1.35 1.09 0.91 0.82 0.65 0.52 0.46 0.45 0.42 0.40 0.44 0.47 0.52 0.60 0.64 0.70 0.78 0.85 0.86 0.84 0.78 0.75 0.75 0.78
0.93 0.91 0.90 0.89 0.87 0.83 0.69 0.65 0.64 0.60 0.57 0.54 0.53 0.59 0.64 0.71 0.81 0.91 1.08 1.35 1.36 1.22 0.91 0.70 0.56 0.47 0.44 0.44 0.42 0.43 0.44 0.45 0.50 0.55 0.57 0.62 0.73 0.82 0.80 0.72 0.65 0.64 0.66 0.72
0.91 0.82 0.83 0.82 0.82 0.79 0.67 0.60 0.60 0.59 0.53 0.49 0.48 0.52 0.59 0.69 0.80 1.03 1.16 1.06 1.09 1.18 0.93 0.72 0.64 0.55 0.44 0.37 0.40 0.42 0.42 0.46 0.55 0.56 0.54 0.56 0.58 0.64 0.66 0.61 0.60 0.61 0.65 0.65
0.91 0.85 0.79 0.71 0.69 0.69 0.69 0.61 0.55 0.57 0.52 0.46 0.42 0.42 0.48 0.61 0.68 0.78 0.94 0.99 0.99 1.03 0.84 0.67 0.59 0.49 0.41 0.38 0.42 0.46 0.53 0.61 0.61 0.54 0.49 0.49 0.50 0.52 0.57 0.56 0.53 0.57 0.62 0.64
0.87 0.84 0.76 0.66 0.66 0.66 0.64 0.57 0.53 0.53 0.46 0.43 0.41 0.40 0.42 0.50 0.64 0.76 0.81 0.85 0.96 0.99 0.85 0.71 0.58 0.51 0.45 0.45 0.49 0.58 0.64 0.58 0.52 0.47 0.43 0.44 0.48 0.52 0.53 0.55 0.58 0.59 0.59 0.61
0.81 0.80 0.74 0.66 0.63 0.62 0.58 0.56 0.55 0.51 0.44 0.42 0.41 0.38 0.40 0.46 0.54 0.64 0.72 0.75 0.81 0.89 0.84 0.68 0.50 0.46 0.46 0.52 0.56 0.60 0.59 0.53 0.48 0.46 0.45 0.46 0.50 0.54 0.54 0.56 0.59 0.58 0.58 0.60
0.74 0.72 0.72 0.69 0.66 0.62 0.58 0.58 0.59 0.55 0.48 0.47 0.51 0.51 0.52 0.55 0.58 0.63 0.67 0.70 0.70 0.68 0.64 0.54 0.44 0.42 0.41 0.42 0.47 0.50 0.50 0.51 0.49 0.48 0.49 0.51 0.54 0.56 0.54 0.52 0.51 0.50 0.49 0.48